Location: Newark
(45.9456°N, 15.4064°E)
Time: 04:34:34
(UTC+00:00)

Explorer 11/Cluster Stage 4 - All Passes

Search period start: 23 January 2020 00:00
Search period end: 02 February 2020 00:00
Orbit: 467 x 1259 km, 28.8° (Epoch: 22 January)

Date Brightness Start Highest point End Pass type
(mag) Time Alt. Az. Time Alt. Az. Time Alt. Az.
23 Jan - 14:04:48 10° SSW 14:09:18 16° S 14:13:28 10° SE daylight
23 Jan - 15:52:40 10° SW 15:57:10 18° S 16:01:13 10° SSE daylight
23 Jan - 17:43:28 10° SSW 17:44:40 11° SSW 17:45:51 10° S visible
24 Jan - 12:09:07 10° SSE 12:10:26 10° SSE 12:11:43 10° SSE daylight
24 Jan - 13:53:21 10° SSW 13:58:19 18° S 14:02:56 10° SE daylight
24 Jan - 15:41:28 10° SW 15:46:14 18° S 15:50:31 10° SSE daylight
24 Jan - 17:32:44 10° SSW 17:33:44 10° SSW 17:34:43 10° SSW visible
25 Jan - 11:56:32 10° S 11:59:23 12° SSE 12:02:13 10° SE daylight
25 Jan - 13:42:00 10° SW 13:47:20 19° S 13:52:18 10° SE daylight
25 Jan - 15:30:19 10° SW 15:35:15 19° S 15:39:46 10° SSE daylight
25 Jan - 17:22:34 10° SSW 17:22:47 10° SSW 17:23:00 10° SSW visible
26 Jan - 11:44:39 10° S 11:48:21 14° SSE 11:51:59 10° SE daylight
26 Jan - 13:30:42 10° SW 13:36:19 20° S 13:41:35 10° SE daylight
26 Jan - 15:19:12 10° SW 15:24:16 19° S 15:28:55 10° SSE daylight
27 Jan - 11:33:02 10° SSW 11:37:17 15° SSE 11:41:30 10° SE daylight
27 Jan - 13:19:30 10° SW 13:25:17 21° S 13:30:48 10° SE daylight
27 Jan - 15:08:08 10° SW 15:13:17 19° SSW 15:18:01 10° SSE daylight
28 Jan - 11:21:35 10° SSW 11:26:13 16° SSE 11:30:53 10° SE daylight
28 Jan - 13:08:20 10° SW 13:14:15 22° S 13:19:57 10° SE daylight
28 Jan - 14:57:07 10° SW 15:02:15 18° SSW 15:07:03 10° SSE daylight
29 Jan - 11:10:16 10° SSW 11:15:10 17° SSE 11:20:08 10° SE daylight
29 Jan - 12:57:14 10° SW 13:03:12 22° S 13:09:02 10° SE daylight
29 Jan - 14:46:10 10° SW 14:51:12 18° SSW 14:56:00 10° SSE daylight
30 Jan - 10:59:03 10° SSW 11:04:06 18° SSE 11:09:19 10° SE daylight
30 Jan - 12:46:11 10° SW 12:52:09 22° S 12:58:04 10° SE daylight
30 Jan - 14:35:16 10° SW 14:40:09 17° SSW 14:44:51 10° SSE daylight
31 Jan - 10:47:56 10° SSW 10:53:03 19° SSE 10:58:23 10° SE daylight
31 Jan - 12:35:13 10° SW 12:41:06 22° S 12:47:02 10° SE daylight
31 Jan - 14:24:28 10° SW 14:29:06 16° SSW 14:33:37 10° SSE daylight
01 Feb - 10:36:54 10° SSW 10:42:00 20° SSE 10:47:26 10° SE daylight
01 Feb - 12:24:18 10° SW 12:30:03 22° S 12:35:56 10° SE daylight
01 Feb - 14:13:45 10° SW 14:18:02 15° SSW 14:22:15 10° SSE daylight
